User: anonymous   Login
Location: Oshawa
(43.9000°N, 78.8670°W)
Time: 13:06:08
(UTC-04:00)
Language:

S-56A Canister/Altair - Orbit

View from above orbital plane
View from above orbital plane
View from above satellite
View from above satellite

Ground track
Ground track

The orbit data is extracted from the following two-line orbital elements,

1 00082U 61004B   18115.68772883  .00000125  00000-0  12569-3 0  9990
2 00082  38.8633 220.3939 1176279 261.1782  85.4206 12.25942417711619
Epoch (UTC): 25 April 2018 16:30:19
Eccentricity: 0.1176279
inclination: 38.8633°
perigee height: 632 km
apogee height: 2501 km
right ascension of ascending node: 220.3939°
argument of perigee: 261.1782°
revolutions per day: 12.25942417
mean anomaly at epoch: 85.4206°
orbit number at epoch: 71161

The dashed part of the orbit path shows where the satellite is in the earth's shadow,  

DLR